• In Uzbekistan
  • List of Countries
  • For 7 days
  • Water Temperature
  • Satellite Maps
  • Weather Map
  • Weather Widgets
  • user-avatar
    Login

    Hourly Weather Zonguldak

    Today, 17 October, Tuesday

    Time Temperature Precipitation Wind Pressure Humidity
    00:00 +13°C° 0 mm 1 mps 757 mmHg 95%
    01:00 +12°C° 0 mm 1 mps 757 mmHg 95%
    02:00 +12°C° 0 mm 1 mps 757 mmHg 95%
    03:00 +12°C° 0 mm 1 mps 757 mmHg 93%
    04:00 +12°C° 0 mm 1 mps 757 mmHg 92%
    05:00 +11°C° 0 mm 1 mps 757 mmHg 90%
    06:00 +13°C° 0 mm 1 mps 757 mmHg 84%
    07:00 +14°C° 0 mm 1 mps 757 mmHg 77%
    08:00 +15°C° 0 mm 1 mps 757 mmHg 71%
    09:00 +18°C° 0 mm 1 mps 757 mmHg 60%
    10:00 +21°C° 0 mm 1 mps 757 mmHg 50%
    11:00 +23°C° 0 mm 1 mps 757 mmHg 39%
    12:00 +23°C° 0 mm 1 mps 757 mmHg 40%
    13:00 +24°C° 0 mm 2 mps 756 mmHg 40%
    14:00 +24°C° 0 mm 2 mps 756 mmHg 41%
    15:00 +21°C° 0 mm 2 mps 756 mmHg 50%
    16:00 +19°C° 0 mm 2 mps 755 mmHg 59%
    17:00 +17°C° 0 mm 2 mps 755 mmHg 68%
    18:00 +16°C° 0 mm 2 mps 755 mmHg 69%
    19:00 +15°C° 0 mm 2 mps 755 mmHg 69%
    20:00 +15°C° 0 mm 2 mps 755 mmHg 70%
    21:00 +15°C° 0 mm 2 mps 755 mmHg 68%
    22:00 +15°C° 0 mm 2 mps 755 mmHg 66%
    23:00 +15°C° 0 mm 2 mps 755 mmHg 65%

    Tomorrow, 18 October, Wednesday

    Time Temperature Precipitation Wind Pressure Humidity
    00:00 +14°C° 0 mm 2 mps 755 mmHg 63%
    01:00 +14°C° 0 mm 2 mps 754 mmHg 62%
    02:00 +14°C° 0 mm 1 mps 754 mmHg 60%
    03:00 +14°C° 0 mm 1 mps 754 mmHg 59%
    04:00 +14°C° 0 mm 1 mps 754 mmHg 59%
    05:00 +14°C° 0 mm 2 mps 754 mmHg 58%
    06:00 +15°C° 0 mm 1 mps 754 mmHg 56%
    07:00 +16°C° 0 mm 1 mps 754 mmHg 53%
    08:00 +19°C° 0 mm 1 mps 754 mmHg 51%
    09:00 +21°C° 0 mm 1 mps 754 mmHg 45%
    10:00 +23°C° 0 mm 1 mps 754 mmHg 39%
    11:00 +26°C° 0 mm 1 mps 754 mmHg 34%
    12:00 +26°C° 0 mm 2 mps 753 mmHg 35%
    13:00 +25°C° 0 mm 2 mps 753 mmHg 36%
    14:00 +25°C° 0 mm 3 mps 752 mmHg 38%
    15:00 +22°C° 0 mm 3 mps 752 mmHg 47%
    16:00 +20°C° 0 mm 3 mps 752 mmHg 56%
    17:00 +18°C° 0 mm 3 mps 752 mmHg 65%
    18:00 +17°C° 0 mm 3 mps 752 mmHg 66%
    19:00 +17°C° 0 mm 3 mps 752 mmHg 67%
    20:00 +16°C° 0 mm 2 mps 752 mmHg 67%
    21:00 +16°C° 0 mm 2 mps 752 mmHg 66%
    22:00 +16°C° 0 mm 2 mps 752 mmHg 64%
    23:00 +16°C° 0 mm 2 mps 752 mmHg 62%

    Day after tomorrow, 19 October, Thursday

    Time Temperature Precipitation Wind Pressure Humidity
    00:00 +15°C° 0 mm 2 mps 751 mmHg 61%
    01:00 +15°C° 0 mm 2 mps 751 mmHg 59%
    02:00 +15°C° 0 mm 2 mps 751 mmHg 58%
    03:00 +15°C° 0 mm 2 mps 751 mmHg 57%
    04:00 +15°C° 0 mm 2 mps 751 mmHg 56%
    05:00 +15°C° 0 mm 2 mps 751 mmHg 55%
    06:00 +16°C° 0 mm 2 mps 751 mmHg 52%
    07:00 +18°C° 0 mm 2 mps 751 mmHg 50%
    08:00 +20°C° 0 mm 1 mps 751 mmHg 48%
    09:00 +22°C° 0 mm 1 mps 751 mmHg 43%
    10:00 +25°C° 0 mm 1 mps 751 mmHg 37%
    11:00 +27°C° 0 mm 1 mps 751 mmHg 32%
    12:00 +27°C° 0 mm 1 mps 750 mmHg 34%
    13:00 +26°C° 0 mm 2 mps 750 mmHg 35%
    14:00 +26°C° 0 mm 2 mps 750 mmHg 37%
    15:00 +24°C° 0 mm 2 mps 750 mmHg 46%
    16:00 +21°C° 0 mm 2 mps 750 mmHg 56%
    17:00 +18°C° 0 mm 2 mps 750 mmHg 65%
    18:00 +18°C° 0 mm 2 mps 750 mmHg 65%
    19:00 +17°C° 0 mm 2 mps 750 mmHg 65%
    20:00 +18°C° 0 mm 1 mps 750 mmHg 66%
    21:00 +18°C° 0 mm 1 mps 750 mmHg 65%
    22:00 +18°C° 0 mm 1 mps 750 mmHg 63%
    23:00 +16°C° 0 mm 1 mps 750 mmHg 62%

    20 October, Friday

    Time Temperature Precipitation Wind Pressure Humidity
    00:00 +16°C° 0 mm 1 mps 750 mmHg 61%
    01:00 +16°C° 0 mm 1 mps 750 mmHg 61%
    02:00 +16°C° 0 mm 1 mps 750 mmHg 60%
    03:00 +16°C° 0 mm 1 mps 750 mmHg 59%
    04:00 +15°C° 0 mm 1 mps 750 mmHg 59%
    05:00 +15°C° 0 mm 1 mps 750 mmHg 58%
    06:00 +18°C° 0 mm 1 mps 750 mmHg 56%
    07:00 +19°C° 0 mm 1 mps 751 mmHg 53%
    08:00 +20°C° 0 mm 1 mps 751 mmHg 51%
    09:00 +22°C° 0 mm 1 mps 751 mmHg 46%
    10:00 +24°C° 0 mm 2 mps 751 mmHg 40%
    11:00 +26°C° 0 mm 2 mps 751 mmHg 35%
    12:00 +26°C° 0 mm 2 mps 751 mmHg 37%
    13:00 +26°C° 0 mm 2 mps 751 mmHg 38%
    14:00 +25°C° 0 mm 2 mps 751 mmHg 40%
    15:00 +23°C° 0 mm 1 mps 750 mmHg 49%
    16:00 +21°C° 0 mm 1 mps 750 mmHg 58%
    17:00 +19°C° 0 mm 1 mps 750 mmHg 67%
    18:00 +18°C° 0 mm 1 mps 751 mmHg 68%
    19:00 +18°C° 0 mm 1 mps 751 mmHg 69%
    20:00 +16°C° 0 mm 1 mps 751 mmHg 69%
    21:00 +16°C° 0 mm 1 mps 751 mmHg 68%
    22:00 +16°C° 0 mm 1 mps 751 mmHg 67%
    23:00 +16°C° 0 mm 1 mps 751 mmHg 65%

    21 October, Saturday

    Time Temperature Precipitation Wind Pressure Humidity
    00:00 +16°C° 0 mm 1 mps 751 mmHg 64%
    01:00 +15°C° 0 mm 1 mps 751 mmHg 63%
    02:00 +15°C° 0 mm 1 mps 751 mmHg 62%
    03:00 +15°C° 0 mm 1 mps 751 mmHg 61%
    04:00 +15°C° 0 mm 1 mps 751 mmHg 61%
    05:00 +15°C° 0 mm 1 mps 751 mmHg 60%
    06:00 +16°C° 0 mm 1 mps 751 mmHg 57%
    07:00 +18°C° 0 mm 1 mps 751 mmHg 54%
    08:00 +19°C° 0 mm 1 mps 751 mmHg 51%
    09:00 +21°C° 0 mm 1 mps 751 mmHg 45%
    10:00 +24°C° 0 mm 1 mps 751 mmHg 39%
    11:00 +26°C° 0 mm 1 mps 751 mmHg 34%
    12:00 +25°C° 0 mm 1 mps 751 mmHg 35%
    13:00 +25°C° 0 mm 2 mps 750 mmHg 37%
    14:00 +25°C° 0 mm 2 mps 750 mmHg 39%
    15:00 +23°C° 0 mm 2 mps 750 mmHg 48%
    16:00 +20°C° 0 mm 1 mps 750 mmHg 57%
    17:00 +18°C° 0 mm 1 mps 750 mmHg 66%
    18:00 +18°C° 0 mm 1 mps 750 mmHg 67%
    19:00 +16°C° 0 mm 1 mps 750 mmHg 67%
    20:00 +15°C° 0 mm 1 mps 750 mmHg 68%
    21:00 +15°C° 0 mm 1 mps 750 mmHg 66%
    22:00 +15°C° 0 mm 1 mps 750 mmHg 65%
    23:00 +15°C° 0 mm 1 mps 750 mmHg 63%

    22 October, Sunday

    Time Temperature Precipitation Wind Pressure Humidity
    00:00 +15°C° 0 mm 1 mps 750 mmHg 62%
    01:00 +15°C° 0 mm 1 mps 750 mmHg 61%
    02:00 +14°C° 0 mm 1 mps 750 mmHg 61%
    03:00 +14°C° 0 mm 1 mps 750 mmHg 60%
    04:00 +14°C° 0 mm 1 mps 750 mmHg 59%
    05:00 +14°C° 0 mm 1 mps 750 mmHg 59%
    06:00 +15°C° 0 mm 1 mps 750 mmHg 56%
    07:00 +16°C° 0 mm 1 mps 750 mmHg 54%
    08:00 +19°C° 0 mm 1 mps 750 mmHg 51%
    09:00 +21°C° 0 mm 1 mps 750 mmHg 45%
    10:00 +23°C° 0 mm 1 mps 749 mmHg 40%
    11:00 +25°C° 0 mm 1 mps 749 mmHg 35%
    12:00 +25°C° 0 mm 2 mps 749 mmHg 37%
    13:00 +25°C° 0 mm 2 mps 748 mmHg 38%
    14:00 +25°C° 0 mm 3 mps 748 mmHg 40%
    15:00 +21°C° 0 mm 2 mps 748 mmHg 49%
    16:00 +19°C° 0 mm 2 mps 748 mmHg 59%
    17:00 +17°C° 0 mm 2 mps 747 mmHg 68%
    18:00 +17°C° 0 mm 2 mps 747 mmHg 68%
    19:00 +16°C° 0 mm 2 mps 747 mmHg 69%
    20:00 +16°C° 0 mm 2 mps 747 mmHg 70%
    21:00 +16°C° 0 mm 2 mps 747 mmHg 68%
    22:00 +16°C° 0 mm 2 mps 747 mmHg 66%
    23:00 +16°C° 0 mm 2 mps 747 mmHg 63%
    Show more